Location: Crécy
(49.6959°N, 3.6245°E)
Time: 22:53:28
(UTC+00:00)

Daily predictions for brighter satellites

Satellite Brightness Start Highest point End
(mag) Time Altitude Azimuth Time Altitude Azimuth Time Altitude Azimuth
BREEZE-M DEB (TANK) 4.1 19:59:28 10° W 20:03:46 86° S 20:21:44 10° ESE
Cosmos 1833 Rocket 3.0 20:17:12 10° NNW 20:22:48 57° NE 20:28:21 10° SE
Cosmos 1455 Rocket 3.1 20:19:30 10° N 20:23:55 89° ENE 20:28:16 10° S
Cosmos 1125 Rocket 3.8 20:18:56 10° S 20:24:02 50° ESE 20:29:09 10° NNE
NOSS 2-3 (E) 3.1 20:20:26 10° SW 20:24:04 74° SE 20:28:11 10° NE
Orbus 7S? 3.5 20:22:43 10° WNW 20:25:27 36° SW 20:28:01 10° SSE
Lacrosse 5 2.5 20:20:27 10° WSW 20:25:28 61° NNW 20:30:30 10° NE
Nadezhda 3 Rocket 4.0 20:19:20 10° N 20:25:32 84° E 20:31:41 10° S
IRS-1C Rocket 4.2 20:21:21 10° SSE 20:26:35 76° ENE 20:31:53 10° NNW
GP-B 3.6 20:23:53 10° N 20:28:16 66° W 20:32:37 10° SSW
IRS-1A Rocket 4.4 20:23:36 10° SSE 20:29:18 81° ENE 20:35:09 10° NNW
Cosmos 1975 Rocket 3.2 20:25:01 10° S 20:29:25 61° E 20:33:50 10° NNE
MetOp-B 4.4 20:30:52 10° S 20:36:13 75° WSW 20:41:36 10° NNW
NOSS 2-2 (D) 2.9 20:34:12 10° SW 20:37:24 79° NW 20:40:35 10° NE
Cosmos 1844 Rocket 4.0 20:36:01 10° SW 20:41:20 44° NW 20:46:42 10° NNE
Cosmos 2082 Rocket 3.5 20:37:29 10° NNW 20:42:22 29° NE 20:47:15 10° ESE
NOSS 2-3 (C) 3.4 20:39:50 10° SW 20:43:28 77° NW 20:47:38 10° NE
Cosmos 2084 4.0 20:43:11 10° WSW 20:47:15 60° NW 20:51:09 10° NE
Cosmos 921 Rocket 4.4 20:43:31 10° NW 20:47:17 33° WSW 20:51:03 10° SSW
Landsat 4 4.4 20:44:22 11° SE 20:47:17 33° ENE 20:50:25 10° N
BREEZE-M R/B 3.8 20:43:53 10° SSW 20:47:25 34° SE 20:54:20 10° ENE
SPOT 3 Rocket 3.7 20:44:49 10° SSE 20:49:58 65° ENE 20:55:09 10° N
Cosmos 2278 Rocket 3.2 20:45:48 10° SSE 20:50:27 27° ESE 20:55:07 10° NE
Cosmos 2084 Rocket 4.3 20:48:49 10° NNW 20:52:36 38° NE 20:56:17 10° ESE
Meteor 2-1 Rocket 4.3 20:47:05 10° NNW 20:52:43 78° W 20:58:13 10° S
Cosmos 2228 3.3 20:48:49 10° N 20:52:56 51° ENE 20:56:37 12° SSE
Cosmos 1869 3.2 20:51:43 10° N 20:55:34 86° WSW 20:59:24 10° S
USA 276 3.9 20:55:15 10° W 20:57:23 18° SW 20:59:13 12° S
SPOT 5 3.9 20:54:15 10° S 20:59:02 46° W 21:04:04 10° NNW
MOS 1 Rocket 3.3 20:55:44 10° S 21:00:20 77° WSW 21:04:43 10° NNW
ERS-1 Rocket 3.3 20:55:41 10° S 21:00:40 68° WSW 21:05:41 10° NNW
Cosmos 1536 Rocket 4.2 20:57:14 12° SSE 21:00:50 35° E 21:04:47 10° NNE
Resurs 01 Rocket 4.4 20:58:41 10° WSW 21:00:50 13° W 21:03:00 10° WNW
Okean O Rocket 4.1 20:59:10 10° SW 21:02:06 18° W 21:05:03 10° NW
BREEZE-M DEB (TANK) 3.9 21:00:02 10° W 21:02:57 49° SSW 21:10:19 11° SE
USA 290 4.0 21:02:43 14° ESE 21:03:32 16° ESE 21:05:31 10° ENE
Cosmos 2218 Rocket 4.3 20:58:20 10° SSE 21:04:12 50° E 21:10:08 10° NNE
ISS -3.4 21:01:57 10° WNW 21:05:16 63° N 21:08:34 10° E
Spot 2 Rocket 3.7 21:05:12 10° S 21:10:18 75° WSW 21:15:25 10° NNW
USA 307 3.7 21:07:10 10° WNW 21:10:55 43° N 21:14:31 10° ENE
Cosmos 614 Rocket 3.9 21:06:03 10° NNW 21:11:09 82° ENE 21:15:20 15° SSE
Cosmos 1943 Rocket 3.2 21:09:13 14° SSE 21:12:53 26° ESE 21:17:27 10° NE
Cosmos 2341 Rocket 4.0 21:13:27 10° S 21:19:45 80° E 21:26:08 10° NNE
Terra 2.5 21:15:50 10° S 21:20:25 51° W 21:25:03 10° NNW
COSMOS 2406 4.0 21:15:53 10° NNW 21:21:16 41° NE 21:25:54 13° ESE
Cosmos 2098 4.2 21:22:31 13° S 21:25:28 80° E 21:28:29 10° NNE
Cosmos 44 3.5 21:21:52 10° SW 21:27:08 82° NW 21:32:10 10° NE
MetOp-A 3.7 21:25:34 18° SSE 21:28:48 64° ENE 21:32:59 10° N
ARIANE 5 R/B 3.9 21:27:15 15° ESE 21:30:10 30° ENE 21:34:04 10° N
ATLAS 3B R/B 3.4 21:27:17 11° S 21:33:17 35° ESE 21:40:01 10° NE
USA 305 3.2 21:30:38 10° WNW 21:34:16 48° NNE 21:37:17 11° E
Cosmos 1606 4.4 21:31:50 10° NNW 21:34:51 26° W 21:37:50 10° SSW
NOSS 3 (A) 4.5 21:32:45 10° NW 21:35:22 78° NE 21:37:02 26° SE
Ariane Rocket 3.7 21:33:17 11° S 21:38:01 48° W 21:42:56 10° NNW
Cosmos 1727 Rocket 4.2 21:31:44 10° N 21:38:02 62° ENE 21:42:35 19° SSE
CZ-4C R/B 3.6 21:31:38 10° NW 21:38:07 50° NE 21:46:05 10° ESE
Landsat 5 3.6 21:34:38 10° NNE 21:39:00 64° ESE 21:42:13 18° S
Cosmos 2298 Rocket 4.2 21:33:57 10° SSW 21:39:16 75° WNW 21:44:38 10° NNE
Cosmos 482 Debris 4.5 21:35:35 10° WSW 21:41:01 75° SSE 21:45:00 10° ENE
USA 215 4.3 21:36:57 14° S 21:41:45 32° SW 21:47:33 10° WNW
Cosmos 1821 Rocket 4.2 21:38:58 17° SSE 21:43:54 60° E 21:50:10 10° NNE
H-2A R/B 4.3 21:42:23 12° E 21:44:33 18° ENE 21:47:08 10° NNE
Cosmos 1437 Rocket 3.5 21:45:21 10° SSW 21:48:51 47° WNW 21:52:23 10° N
Gbstr 26 Del rocket 3.6 21:48:04 10° WNW 21:52:44 75° N 21:58:32 10° E
Cosmos 1238 Rocket 4.4 21:51:39 10° NNE 21:54:25 21° ENE 21:56:00 17° ESE
Geosat 3.9 21:49:36 10° NNE 21:54:40 82° ESE 21:59:40 10° SSW
Cosmos 1544 4.5 21:57:13 11° ENE 21:57:13 11° ENE 21:57:30 10° NE
ULPM Upper Stage 2.8 21:52:35 10° NW 21:56:59 81° NE 21:59:28 25° SE
Meteor 2-13 Rocket 4.5 21:51:25 10° N 21:57:37 87° W 22:02:01 20° S
SeaSat 1 3.9 21:53:41 11° ESE 21:57:44 30° NE 22:01:59 10° NNW
Cosmos 1892 Rocket 4.1 21:56:23 26° SSE 21:58:25 42° E 22:02:37 10° NNE
Cosmos 1269 Rocket 4.0 21:54:34 10° NNW 21:59:54 83° WSW 22:03:08 24° SSE
NOSS 3-1 (C) 3.1 21:57:46 10° SW 22:02:43 86° NW 22:08:48 10° NE
BREEZE-M DEB (TANK) 2.6 22:01:41 10° W 22:03:35 24° SW 22:03:35 24° SW
Cosmos 1833 Rocket 4.2 22:01:39 10° NW 22:06:23 28° WSW 22:10:33 12° SSW
Cosmos 2366 rocket 4.5 22:01:16 10° SSW 22:07:19 59° WNW 22:13:25 10° N
Lacrosse 5 3.5 22:04:29 10° WNW 22:09:10 36° N 22:13:51 10° ENE
NOSS 8 (E) 4.3 22:07:36 10° NW 22:10:38 85° NE 22:11:58 36° SE
Cosmos 407 Rocket 4.3 22:05:54 10° NNW 22:10:51 43° ENE 22:14:03 20° ESE
Cosmos 2058 3.6 22:10:23 29° SE 22:11:44 39° E 22:15:34 10° NNE
Cosmos 1606 Rocket 3.7 22:10:20 10° NNW 22:14:37 64° W 22:16:53 26° S
Cosmos 1726 Rocket 3.5 22:11:11 10° NNW 22:15:32 83° W 22:17:37 30° S
Cosmos 2082 Rocket 2.4 22:21:18 10° NW 22:26:52 62° WSW 22:29:49 28° S
Cosmos 2239 Rocket 4.4 22:23:14 23° S 22:27:22 84° E 22:33:40 10° N
Cosmos 1140 Rocket 3.4 22:24:18 10° NNW 22:29:27 84° ENE 22:32:00 31° SSE
CENTAUR R/B 4.2 22:22:37 10° NW 22:29:53 43° NNE 22:38:18 10° E
EP 1 4.4 22:28:09 10° NW 22:30:49 79° NE 22:31:12 62° ESE
Cosmos 2084 Rocket 4.2 22:28:02 10° WNW 22:31:37 33° WSW 22:32:33 29° SSW
Cosmos 2278 Rocket 2.7 22:28:34 10° SW 22:34:09 59° NW 22:39:46 10° NNE
Cosmos 2369 Rocket 3.5 22:33:17 21° ESE 22:34:37 23° ESE 22:38:55 10° NE
Cosmos 2123 Rocket 4.0 22:29:31 10° N 22:35:52 79° E 22:39:24 28° SSE
USA 290 3.7 22:35:24 15° WSW 22:37:38 35° WNW 22:40:37 10° N
SL-08 R/B 4.5 22:35:16 22° SSW 22:39:22 82° W 22:45:32 10° N
Cosmos 1812 3.1 22:36:03 10° NNW 22:39:29 49° W 22:40:34 35° SW
PSLV R/B 3.8 22:37:10 10° NNE 22:41:10 73° ESE 22:42:29 40° S
ISS -3.6 22:38:45 10° WNW 22:41:59 52° SSW 22:41:59 52° SSW
NOSS 3-1 (A) 3.0 22:37:23 11° SW 22:42:10 88° ESE 22:48:16 10° NE
USA 307 2.4 22:40:35 10° WNW 22:44:26 85° NNE 22:45:39 40° ESE
Cosmos 1782 3.1 22:42:07 10° N 22:45:50 50° ENE 22:46:49 38° ESE
Cosmos 2251 Rocket 3.7 22:40:45 10° NNW 22:46:06 70° ENE 22:48:45 30° SE
MINOTAUR 4 R/B 3.8 22:43:53 10° NNE 22:46:28 52° E 22:46:28 52° E
Cosmos 1378 3.7 22:45:22 10° N 22:48:22 35° ENE 22:48:47 33° E
Cosmos 2058 Rocket 3.1 22:45:17 10° NNW 22:49:38 70° W 22:51:14 37° S
Cosmos 489 Rocket 4.4 22:46:58 27° S 22:50:32 72° ESE 22:56:45 10° NNE
Alouette 2 Rocket 3.9 22:49:20 34° S 22:51:17 84° ESE 22:57:26 10° NNE
Cosmos 1943 Rocket 2.6 22:50:40 10° SW 22:56:14 61° WNW 23:01:49 10° NNE
Timation 1 Rocket 4.4 22:50:11 10° NNW 22:56:14 81° ENE 22:59:29 29° SE
H-2A R/B 3.9 22:56:20 10° NE 22:58:52 16° E 22:59:25 16° E
Cosmos 1271 Rocket 2.8 22:58:20 48° SE 22:58:57 55° E 23:02:40 10° NNE
Cosmos 1515 3.4 22:58:26 10° N 23:01:55 70° E 23:02:25 58° SE
Meteor 2-19 Rocket 4.4 22:56:45 10° N 23:02:56 84° W 23:06:01 32° S
Cosmos 192 4.5 23:00:07 24° SW 23:03:03 73° WNW 23:08:02 10° NNE
Spot 4 3.9 23:01:14 36° S 23:03:10 75° WSW 23:08:03 10° NNW
Cosmos 2056 Rocket 4.5 23:02:29 27° SE 23:03:52 31° ESE 23:08:26 10° NE
COSMOS 2406 3.9 23:00:17 10° NW 23:05:34 40° WSW 23:07:56 27° SSW
ARIANE 5 R/B 3.7 23:04:43 26° SW 23:06:28 36° W 23:10:37 10° NNW
USA 305 2.8 23:03:07 10° WNW 23:05:57 42° WSW 23:05:57 42° WSW
Cosmos 1934 Rocket 4.0 23:03:27 27° SSW 23:07:04 81° W 23:13:18 10° N
Cosmos 1812 Rocket 3.9 23:05:19 10° N 23:09:43 55° ENE 23:11:13 36° SE
USA 229 DEB 3.7 23:07:40 31° S 23:10:31 54° ESE 23:17:05 10° NE
USA 229 3.7 23:07:50 31° S 23:10:39 54° ESE 23:17:12 10° NE
Cosmos 1602 Rocket 3.9 23:13:06 39° SE 23:14:11 50° E 23:18:23 10° NNE
Lacrosse 4 Rocket 2.6 23:15:05 26° ESE 23:15:05 26° ESE 23:18:21 10° NE
USA 281 3.4 23:11:30 23° SE 23:15:47 68° ENE 23:22:19 10° NNW
Cosmos 1190 Rocket 4.0 23:13:38 10° NNW 23:18:53 81° ENE 23:21:06 35° SSE
H-2A R/B 2.7 23:18:20 41° SW 23:19:09 49° W 23:22:52 10° NNW
Lacrosse 5 rocket 2.3 23:23:15 29° ESE 23:23:15 29° ESE 23:25:56 10° ENE
Cosmos 676 Rocket 4.4 23:17:46 10° NNW 23:22:53 56° ENE 23:25:31 27° SE
ALOS 2 2.7 23:22:03 42° SSW 23:23:22 64° WSW 23:27:45 10° NNW
ATLAS 3B R/B 3.1 23:16:22 10° SW 23:23:37 71° NW 23:31:22 10° NE
CZ-4C R/B 3.1 23:19:56 10° NW 23:26:58 62° SW 23:31:35 29° SSE
SL-27 R/B 3.3 23:26:48 10° N 23:29:23 30° ENE 23:29:31 30° ENE
Cosmos 2285 Rocket 4.0 23:23:21 10° NNW 23:29:50 87° WSW 23:33:03 32° SSE
Cosmos 1809 Rocket 4.5 23:23:51 10° N 23:30:03 76° E 23:33:04 32° SSE
Cosmos-2242 3.2 23:26:06 10° NNW 23:30:15 58° W 23:31:18 43° SSW
Cosmos 1238 Rocket 3.8 23:28:58 10° NNW 23:32:15 34° W 23:33:08 30° WSW
BREEZE-M DEB (TANK) 4.2 23:18:25 10° SW 23:32:56 43° SSE 23:37:09 10° E
Cosmos 1758 Rocket 3.4 23:31:55 48° S 23:33:07 89° E 23:37:27 10° N
SJ 16-02 3.9 23:31:17 10° NNE 23:33:51 15° NE 23:36:24 10° E
SeaSat 1 2.6 23:33:22 39° S 23:34:56 57° WSW 23:39:48 10° NW
Cosmos 1626 Rocket 3.8 23:34:36 37° SW 23:36:04 59° WNW 23:40:20 10° N
Okean 1-7 Rocket 3.4 23:35:24 47° S 23:36:37 84° E 23:41:02 10° N
Gblst 52 Del rocket 4.2 23:34:17 30° SSW 23:36:50 55° SSE 23:42:12 10° ENE
Exosat Rocket 3.5 23:31:38 10° NNW 23:37:10 90° SSW 23:39:13 37° SSE
Gbstr 26 Del rocket 3.7 23:34:25 10° WNW 23:39:30 58° SSW 23:42:40 28° SE
Meteor 2-3 Rocket 3.7 23:38:47 33° SSW 23:41:27 79° WNW 23:47:09 10° N
Cosmos 1833 4.3 23:39:32 10° NNW 23:45:16 75° ENE 23:48:24 28° SE
BREEZE-M DEB (TANK) 4.5 23:43:15 10° W 23:46:45 48° SSW 23:57:14 10° SE
Cosmos 1605 Rocket 4.2 23:47:24 29° SSW 23:50:36 65° WNW 23:56:45 10° N
Cosmos 2297 3.7 23:47:56 30° SSW 23:50:56 82° WNW 23:56:41 10° NNE
Cosmos 1666 2.2 23:51:09 77° S 23:51:22 86° E 23:54:47 10° N
COSMOS 2455 2.9 23:45:52 10° NW 23:51:57 81° NE 23:55:41 25° SE
Lacrosse 5 2.9 23:48:04 10° NW 23:53:00 48° NNE 23:57:54 10° E
Cosmos 1656 Rocket 3.7 23:50:26 29° SW 23:53:22 74° WNW 23:58:57 10° NNE
